Location: Desert Center
(33.7130°N, 115.4010°W)
Time: 01:53:47
(UTC-08:00)

X-37B - Visible Passes

Search period start: 01 December 2021 00:00
Search period end: 11 December 2021 00:00
Orbit: 330 x 341 km, 45.0° (Epoch: 20 November)

Date Brightness Start Highest point End Pass type
(mag) Time Alt. Az. Time Alt. Az. Time Alt. Az.
02 Dec 2.8 18:16:58 10° SSW 18:17:54 17° S 18:17:54 17° S visible
03 Dec 3.3 18:36:58 10° WSW 18:37:48 18° WSW 18:37:48 18° WSW visible
04 Dec 1.6 17:22:24 10° SSW 17:24:54 27° SE 17:26:24 17° E visible
05 Dec 0.3 17:42:23 10° WSW 17:45:14 79° NNW 17:46:10 38° NE visible
06 Dec 1.9 18:03:16 10° W 18:05:47 27° NNW 18:05:51 27° NNW visible
07 Dec 3.2 18:24:47 10° NW 18:25:30 13° NW 18:25:30 13° NW visible
08 Dec 1.9 17:08:41 10° W 17:11:12 27° NNW 17:13:44 10° NE visible
09 Dec 2.7 17:30:12 10° NW 17:31:55 15° NNW 17:33:25 11° NNE visible
